Location: Alta Tens�o I
(19.9725°S, 43.9929°W)
Time: 02:41:06
(UTC+00:00)

Daily predictions for brighter satellites

Satellite Brightness Start Highest point End
(mag) Time Altitude Azimuth Time Altitude Azimuth Time Altitude Azimuth
Cosmos 2369 Rocket 4.0 00:07:04 13° WNW 00:10:58 28° WSW 00:15:42 10° S
Atlas Centaur 2 3.2 00:20:01 10° WSW 00:25:54 60° W 00:25:54 60° W
ATLAS 2AS CENTAUR R/B 4.5 03:49:32 10° S 03:54:33 27° SE 03:54:33 27° SE
Cosmos 2322 Rocket 4.4 04:27:32 20° SSE 04:27:32 20° SSE 04:29:09 10° SSE
Cosmos 2333 Rocket 4.0 04:55:29 25° E 04:55:29 25° E 04:58:55 10° SE
Cosmos 2360 Rocket 3.7 05:03:52 32° S 05:03:52 32° S 05:06:49 10° SSE
Cosmos 2219 Rocket 3.7 05:07:34 30° E 05:07:34 30° E 05:11:30 10° SE
IDEFIX/ARIANE 42P 4.1 05:13:12 32° S 05:13:12 32° S 05:16:01 10° S
Cosmos 1553 Rocket 4.3 05:18:35 64° SE 05:18:35 64° SE 05:24:09 10° S
SL-16 R/B 2.9 05:12:11 10° SSE 05:17:29 62° SE 05:17:29 62° SE
MSX 4.3 05:21:49 57° SE 05:21:49 57° SE 05:27:04 10° S
Cosmos 2322 4.0 05:41:04 61° S 05:41:04 61° S 05:45:52 10° SSE
ARIANE 5 R/B 4.3 05:46:00 22° SW 05:46:00 22° SW 05:47:54 10° SSW
ATLAS 2AS CENTAUR R/B 4.3 05:39:31 10° SW 05:41:51 21° SW 05:41:51 21° SW
Cosmos 1763 Rocket 4.3 05:49:13 42° SSW 05:49:13 42° SSW 05:53:01 10° S
RESURS DK-1 4.3 05:44:36 10° S 05:48:12 27° ESE 05:50:39 16° ENE
GOES 2 Rocket 4.2 05:50:13 38° S 05:50:13 38° S 05:53:47 10° SE
Cosmos 1570 Rocket 4.0 05:59:30 69° NE 05:59:57 74° ENE 06:05:15 10° SSE
SJ 16-02 1.9 05:58:35 10° S 06:02:56 56° ESE 06:03:47 47° ENE
Cosmos 2263 Rocket 4.3 05:59:04 10° SW 05:59:48 13° SW 05:59:48 13° SW
X-37B 2.9 06:06:48 24° E 06:06:48 24° E 06:08:23 10° ESE
Cosmos 1076 Rocket 4.0 06:01:41 10° S 06:05:01 53° S 06:05:01 53° S
Cosmos 1745 Rocket 4.3 06:00:09 10° S 06:06:18 66° E 06:11:26 15° NNE
Cosmos 883 Rocket 4.5 06:08:21 38° N 06:11:00 85° E 06:17:22 10° S
Palapa 6 Rocket 4.2 06:09:55 35° WSW 06:13:00 69° S 06:19:03 10° E
PAYLOAD A 3.8 06:12:59 43° NNE 06:14:43 89° W 06:19:41 10° SSW
Cosmos 540 Rocket 3.4 06:14:46 60° W 06:14:56 61° WSW 06:20:03 10° S
Delta 128 4.3 06:15:25 52° WNW 06:16:32 60° NNW 06:22:08 10° NE
Cosmos 2315 Rocket 4.1 06:14:36 26° N 06:18:22 78° E 06:24:44 10° S
SL-08 R/B 4.3 06:15:48 10° SSE 06:20:23 44° E 06:23:29 19° NNE
USA 234 3.1 06:14:43 10° NNE 06:21:12 66° NW 06:27:45 10° SW
GPS 2-15 Rocket1 2.9 06:24:53 63° W 06:25:39 87° N 06:30:19 10° E
Lacrosse 5 rocket 1.6 06:26:32 53° N 06:27:23 70° ENE 06:31:55 10° SE
TSX-5 3.9 06:24:34 10° SSW 06:28:29 68° WNW 06:33:31 10° NNE
Cosmos 1867 4.1 06:33:45 21° N 06:37:12 54° ENE 06:42:29 10° SE
CZ-2C R/B 2.4 06:35:44 35° NNW 06:37:27 55° W 06:42:16 10° SSW
Cosmos 2333 Rocket 3.4 06:37:30 24° W 06:38:12 25° WSW 06:42:51 10° SSW
Cosmos-2242 4.2 06:38:53 27° WSW 06:38:53 27° WSW 06:41:58 10° SSW
COSMOS 2428 3.6 06:43:34 27° W 06:44:53 29° WSW 06:49:48 10° S
Cosmos 841 Rocket 4.4 06:44:09 27° W 06:44:59 29° WSW 06:49:29 10° SSW
Cosmos 1869 3.1 06:47:11 27° N 06:49:13 79° W 06:53:08 10° S
Cosmos 405 2.9 06:48:19 27° N 06:50:07 84° E 06:53:40 10° S
Cosmos 2219 Rocket 3.5 06:49:18 20° W 06:50:24 21° WSW 06:54:35 10° SSW
Cosmos 2151 3.1 06:47:07 10° SSW 06:51:16 51° W 06:53:37 23° NNW
Centaur D-1AR AC-36 2.5 06:51:36 28° NW 06:52:19 30° NNW 06:55:15 10° NE
Cosmos 1441 Rocket 3.5 06:48:38 10° SSW 06:52:26 45° W 06:53:57 29° NNW
Chandra Rocket (1) 4.2 06:35:48 10° WSW 06:53:02 54° S 06:57:57 10° E
Cosmos 2221 2.9 06:49:23 10° N 06:53:36 64° E 06:57:55 10° SSE
Cosmos 990 Rocket 3.9 06:50:25 10° SSW 06:55:33 64° WNW 07:00:42 10° N
DELTA 4 R/B 3.8 06:40:51 10° W 06:57:01 54° SSW 07:01:04 10° ESE
Cosmos 1484 Rocket 2.8 06:54:43 10° NNE 06:58:34 81° ESE 07:02:32 10° S
Palapa B4 Rocket 3.2 06:58:00 28° NW 06:59:35 47° NNE 07:03:54 10° E
FENGYUN 3A 3.6 06:54:43 10° N 07:00:05 81° WNW 07:05:31 10° SSW
Meteor 2-2 Rocket 4.5 06:54:57 10° N 07:00:34 74° E 07:06:20 10° S
SL-16 R/B 4.4 06:59:41 10° SW 07:01:17 11° WSW 07:02:35 10° W
Cosmos 1184 Rocket 2.6 07:00:55 10° S 07:04:13 73° W 07:07:28 10° N
USA 215 4.3 06:58:36 10° ESE 07:04:42 40° NE 07:10:44 10° NNW
Cosmos 2237 Rocket 2.3 07:02:34 17° NNW 07:06:56 59° WSW 07:12:34 10° S
Delta 168 4.2 07:04:04 10° W 07:11:32 44° NNW 07:16:28 10° NE
BREEZE-M DEB (TANK) 3.5 07:16:36 17° W 07:17:45 25° NW 07:20:11 10° NNE
Meteor 2-17 Rocket 4.5 07:16:00 10° S 07:22:09 87° E 07:28:12 10° N
Cosmos 1844 Rocket 3.2 07:17:19 10° SW 07:22:22 35° WNW 07:27:24 10° NNW
RESURS DK-1 4.1 07:24:03 10° WSW 07:25:52 13° WNW 07:26:14 12° WNW
Cosmos 1980 4.5 07:21:47 13° NW 07:26:17 34° WSW 07:31:23 10° S
deb Chang Zheng 4 3.6 07:22:56 10° N 07:27:14 62° WNW 07:31:33 10° SSW
ALOS 2.8 07:24:53 10° NNW 07:29:08 36° W 07:33:27 10° SSW
DELTA 2 R/B (1) 4.0 07:25:46 10° SW 07:31:22 68° SE 07:36:57 10° ENE
COSMOS 2455 3.1 07:26:09 10° SW 07:31:51 44° WNW 07:37:30 10° N
GPS 2-18 Rocket1 3.5 07:29:09 10° W 07:32:59 47° NNW 07:36:51 10° ENE
Meteor 1-31 Rocket 3.0 07:31:23 10° N 07:34:59 44° W 07:38:40 10° SSW
Cosmos 1844 4.3 07:31:35 10° SW 07:36:34 32° WNW 07:41:28 10° NNW
Cosmos 372 Rocket 4.0 07:33:29 10° SSW 07:38:42 89° ESE 07:43:48 10° NNE
ATLAS CENTAUR Rocket 4.2 07:36:09 10° N 07:40:14 26° NE 07:50:51 10° ESE
X-37B 3.1 07:40:37 10° WSW 07:42:03 12° SW 07:43:31 10° S
Nadezhda 1 Rocket 4.0 07:40:46 10° NNW 07:46:53 69° W 07:53:00 10° S
